ALOS-2

Last updated on Thu Jul 03 2025 00:02:15 GMT+0000 (Coordinated Universal Time)

1 39766U 14029A 25183.54496156 .00001177 00000+0 16445-3 0 9994 2 39766 97.9226 280.7269 0001629 98.6068 261.5328 14.79474553599882
UTC large
Height (km)
Speed (km/s)
/
Latitude / Longitude
Inclination (degrees)
Orbital Period (minutes)
Azimuth
Elevation
Range (km)
Doppler Factor

Next 0 passes for location: London (51.5072 / 0.1276)

Sorry there are no passes over London.